Simultaneous Nadir Overpasses (SNOs) Predictions

Prediction of SNOs between AQUA and METOP-A Satellite Orbit:

Table of predicted SNOs for the next 14.0 days since TLE Epoch: 3/9/2018
Index Date (AQUA) Time (AQUA) Lat,Lon (AQUA) SZA (AQUA ) Date (METOP-A) Time (METOP-A) Lat,Lon (METOP-A) SZA (METOP-A ) Distance(km) Time Diff (sec)
1 03/11/2018 20:16:00 74.22,-130.47 77.81 03/11/2018 20:15:26 74.24,-130.47 77.83 1.86 34
2 03/11/2018 21:05:28 -74.31, 36.96 102.11 03/11/2018 21:06:06 -74.31, 37.05 102.12 2.86 38
3 03/14/2018 15:50:17 74.25, -64.12 76.73 03/14/2018 15:49:42 74.23, -64.07 76.72 2.99 35
4 03/14/2018 16:39:44 -74.29, 103.43 103.25 03/14/2018 16:40:22 -74.31, 103.47 103.23 2.93 38
5 03/17/2018 11:24:34 74.25, 2.33 75.60 03/17/2018 11:23:59 74.23, 2.33 75.59 2.18 35
6 03/17/2018 12:14:02 -74.33, 169.77 104.33 03/17/2018 12:14:39 -74.31, 169.88 104.35 3.60 37
7 03/20/2018 06:58:51 74.25, 68.76 74.48 03/20/2018 06:58:16 74.22, 68.73 74.47 3.13 35
8 03/20/2018 07:48:19 -74.33,-123.79 105.45 03/20/2018 07:48:56 -74.31,-123.71 105.47 2.90 37
9 03/23/2018 02:33:07 74.26, 135.17 73.38 03/23/2018 02:32:31 74.26, 135.24 73.38 2.45 36
10 03/23/2018 03:22:34 -74.29, -57.26 106.61 03/23/2018 03:23:12 -74.31, -57.31 106.59 3.22 38




NCC Satellite Simultaneous Nadir Overpasses (SNOs) Prediction Service
